Regional Weather Roundup
Issued by NWS

Home | Current Version | Previous Version | Graphics & Text | Print | Product List | Glossary On
Versions: 1 2 3 4 5 6 7 8 9 10 11 12 13 14 15 16 17 18 19 20 21 22 23 24 25 26 27 28 29 30 31 32 33 34 35 36 37 38 39 40 41 42 43 44 45 46 47 48 49 50
000
ASUS43 KIND 061709
RWRIN

WEATHER ROUNDUP FOR INDIANA
NATIONAL WEATHER SERVICE INDIANAPOLIS IN
1200 PM EST TUE DEC 06 2016

NOTE: "FAIR" INDICATES FEW OR NO CLOUDS BELOW 12,000 FEET WITH NO
SIGNIFICANT WEATHER AND/OR OBSTRUCTIONS TO VISIBILITY.

* - STATION DOES NOT REPORT WEATHER SUCH AS PRECIPITATION OR FOG.

+ - STATION NOT QUALITY CONTROLLED BY THE NATIONAL WEATHER SERVICE.
    USE DATA WITH CAUTION...ESPECIALLY DEWPOINT AND RELATIVE
    HUMIDITY OBSERVATIONS.

INZ001>003-010>013-019-020-061800-
NORTHWEST INDIANA

CITY           SKY/WX    TMP DP  RH WIND       PRES   REMARKS
GARY /AIRPORT/ MOSUNNY   37  32  81 CALM      29.78S
KNOX *+        CLOUDY    34  19  55 CALM      29.75S
LA PORTE +     MOSUNNY   36  36 100 CALM      29.75F FOG
MICHIGAN CITY+ MOSUNNY   36  32  87 CALM      29.76S
MONTICELLO +   CLOUDY    36  29  76 NW3       29.74S
RENSSELAER +     N/A     34  34 100 CALM      29.76S FOG
VALPARAISO     PTSUNNY   37  30  75 CALM      29.76F

$$

LMZ046-743>745-061800-
SOUTHERN LAKE MICHIGAN

STATION/POSITION TIME  TEMP    WIND        PRES    WAVE
                       AIR SEA DIR/SP/G            HT
                 (UTC) (F)     (DEG/KT/KT) (MB)    (FT)
BURNS HARBOR     1640   37     270/  4/  5 1008.8R
MICHIGAN CITY    1640   36     210/  3/  4   N/A

$$

INZ004-005-014>016-021>024-061800-
NORTH CENTRAL INDIANA

CITY           SKY/WX    TMP DP  RH WIND       PRES   REMARKS
ELKHART        CLOUDY    37  30  75 CALM      29.73F
GOSHEN         CLOUDY   N/A N/A N/A SE7       29.72F
LOGANSPORT +   CLOUDY    36  32  87 N3        29.74S
PERU/GRISSOM   CLOUDY    35  33  93 CALM      29.71F
ROCHESTER +    MOSUNNY   37  34  87 CALM      29.73F
SOUTH BEND     CLOUDY    36  30  79 CALM      29.74F
WARSAW +       CLOUDY    34  30  86 CALM      29.72F

$$

INZ006>009-017-018-025>027-061800-
NORTHEAST INDIANA

CITY           SKY/WX    TMP DP  RH WIND       PRES   REMARKS
ANGOLA *+      PTSUNNY   36  25  64 E12       29.70S
AUBURN +       LGT RAIN  34  32  93 E8        29.69F WCI  27
FORT WAYNE     LGT RAIN  34  30  85 E8        29.70F WCI  27
HUNTINGTON +   LGT RAIN  33  32  98 E7        29.70F WCI  26
KENDALLVILLE + CLOUDY    34  32  93 E8        29.70S FOG     WCI  27

$$

INZ028-029-035-036-043>045-051>053-061800-
WEST CENTRAL INDIANA

CITY           SKY/WX    TMP DP  RH WIND       PRES   REMARKS
CRAWFORDSVL +  CLOUDY    37  37 100 NW6       29.75R FOG
GREENCASTLE +  CLOUDY    37  37 100 NW7       29.75R FOG
LAFAYETTE      PTSUNNY   38  34  85 NW5       29.75S
TERRE HAUTE    CLOUDY    41  37  86 NW6       29.77S

$$

INZ030>032-037>040-046>048-054>057-064-065-061800-
CENTRAL INDIANA

CITY           SKY/WX    TMP DP  RH WIND       PRES   REMARKS
ANDERSON       CLOUDY    36  36 100 E6        29.29  FOG
CP ATTERBURY + CLOUDY    39  37  93 NW3       29.71S
COLUMBUS       CLOUDY    39  39 100 CALM      29.70F FOG
FISHERS *+     CLOUDY    36  36 100 W5        29.72R
FRANKFORT +    CLOUDY    39  36  89 NW6       29.75R FOG
GREENWOOD *+   CLOUDY    39  38  94 CALM      29.70F
INDIANAPOLIS   CLOUDY    39  37  92 NW12      29.73R FOG
-EAGLE CREEK   CLOUDY    39  35  86 NW12      29.72R
KOKOMO +       CLOUDY    35  33  92 NW6       29.74R FOG     WCI  30
MARION +       CLOUDY    33  32  94 E6        29.70F FOG     WCI  28
MT COMFORT *+  CLOUDY    37  36  93 NE3       29.69F
SHELBYVILLE    CLOUDY    40  36  86 NE8       29.68F
ZIONSVILLE +   CLOUDY    35  33  92 NW7       29.74R FOG     WCI  29

$$

INZ033-034-041-042-049-050-058-059-061800-
EAST CENTRAL INDIANA

CITY           SKY/WX    TMP DP  RH WIND       PRES   REMARKS
MUNCIE         CLOUDY    35  33  92 E8        29.68F FOG     WCI  29

$$

INZ060-061-067>069-081>083-085>088-061800-
SOUTHWEST INDIANA

CITY           SKY/WX    TMP DP  RH WIND       PRES   REMARKS
EVANSVILLE     CLOUDY    43  40  89 NW13      29.78R FOG
HUNTINGBURG *+ CLOUDY    42  40  92 NW15      29.77R
WASHINGTON +   CLOUDY    41  41 100 NW15      29.77R

$$

INZ062-063-066-070>080-084-089>092-061800-
SOUTH CENTRAL AND SOUTHEAST INDIANA

CITY           SKY/WX    TMP DP  RH WIND       PRES   REMARKS
BLOOMINGTON    CLOUDY    39  37  92 NW6       29.74R FOG
MADISON *+     CLOUDY    41  39  93 NW3       29.70S
NORTH VERNON + DRIZZLE  N/A N/A N/A NW7       29.70R
SEYMOUR +      DRIZZLE   43  41  93 NW5       29.71F

$$





USA.gov is the U.S. government's official web portal to all federal, state and local government web resources and services.